Springfield, IL

1:17 PM CST on December 13, 2017 (GMT -0600)
Capital

Weather History for KSPI - April, 2014

Change the Weather History Date:

Tuesday, April 29, 2014

  Actual Average Record
Temperature  
Mean Temperature 56 °F 58 °F  
Max Temperature 60 °F 70 °F 89 °F (1910)
Min Temperature 51 °F 47 °F 32 °F (1958)
Degree Days  
Heating Degree Days 9 8  
Month to date heating degree days 274 358  
Since 1 July heating degree days 6076 5340  
Cooling Degree Days 0 1  
Month to date cooling degree days 10 18  
Year to date cooling degree days 10 20  
Growing Degree Days 6 (Base 50)    
Moisture  
Dew Point 46 °F    
Average Humidity 70    
Maximum Humidity 86    
Minimum Humidity 53    
Precipitation  
Precipitation T in 0.13 in 2.50 in (1951)
Month to date precipitation 4.30 3.38  
Year to date precipitation 11.52 9.64  
Snow  
Snow 0.00 in 0.00 in 0.00 in ()
Month to date snowfall 0.1 0.3  
Since 1 July snowfall 45.7 20.9  
Snow Depth 0.00 in    
Sea Level Pressure  
Sea Level Pressure 29.57 in    
Wind  
Wind Speed 11 mph (SSW)    
Max Wind Speed 21 mph    
Max Gust Speed 26 mph    
Visibility 10 miles    
Events Rain    
T = Trace of Precipitation, MM = Missing Value Source: NWS Daily Summary

Daily Weather History Graph

Daily Weather History Graph

Search for Another Location

Airport or City:

Trip Planner

Search our weather history database for the weather conditions in past years. The results will help you decide how hot, cold, wet, or windy it might be!

Date:

Astronomy

Apr. 29, 2014 Rise Set
Actual Time 6:01 AM CDT 7:51 PM CDT
Civil Twilight 5:32 AM CDT 8:20 PM CDT
Nautical Twilight 4:57 AM CDT 8:55 PM CDT
Astronomical Twilight 4:19 AM CDT 9:33 PM CDT
Moon 6:19 AM CDT (4/29) 8:31 PM CDT (4/29)
Length of Visible Light 14h 47m
Length of Day
13h 49m
New Moon, 0% of the Moon is Illuminated
Apr 29
New Moon
May 6
First Quarter
May 14
Full
May 21
Last Quarter
May 28
New

Hourly Weather History & Observations

Time (CDT) Temp. Dew Point Humidity Pressure Visibility Wind Dir Wind Speed Gust Speed Precip Events Conditions
12:52 AM 55.0 °F 51.1 °F 86% 29.49 in 10.0 mi SE 6.9 mph - N/A   Partly Cloudy
1:52 AM 55.9 °F 51.1 °F 84% 29.48 in 10.0 mi SE 9.2 mph - N/A   Clear
2:52 AM 55.0 °F 50.0 °F 83% 29.46 in 10.0 mi SSE 9.2 mph - N/A   Clear
3:52 AM 55.9 °F 50.0 °F 80% 29.44 in 10.0 mi SSE 10.4 mph - N/A   Overcast
4:52 AM 57.0 °F 51.1 °F 81% 29.44 in 10.0 mi SSE 12.7 mph - 0.00 in Rain Light Rain
5:52 AM 57.2 °F 50.0 °F 77% 29.45 in 10.0 mi SSE 10.4 mph - N/A   Overcast
6:52 AM 57.0 °F 50.0 °F 77% 29.47 in 10.0 mi SSW 11.5 mph 19.6 mph N/A   Overcast
7:52 AM 55.9 °F 44.1 °F 64% 29.47 in 10.0 mi SSW 9.2 mph - N/A   Overcast
8:52 AM 55.9 °F 41.0 °F 57% 29.48 in 10.0 mi SSW 12.7 mph - N/A   Overcast
9:52 AM 59.0 °F 42.8 °F 55% 29.49 in 10.0 mi SW 13.8 mph 23.0 mph N/A   Overcast
10:52 AM 57.9 °F 42.1 °F 56% 29.51 in 10.0 mi SW 13.8 mph 21.9 mph N/A   Overcast
11:52 AM 59.0 °F 43.0 °F 55% 29.53 in 10.0 mi SSW 16.1 mph - N/A   Overcast
12:52 PM 57.9 °F 43.0 °F 58% 29.55 in 10.0 mi SSW 18.4 mph 21.9 mph N/A   Overcast
1:52 PM 57.9 °F 44.1 °F 60% 29.56 in 10.0 mi WSW 9.2 mph - N/A   Overcast
2:52 PM 57.9 °F 46.0 °F 65% 29.57 in 10.0 mi West 11.5 mph - N/A   Overcast
3:52 PM 57.2 °F 46.4 °F 67% 29.58 in 10.0 mi West 10.4 mph - N/A   Overcast
4:52 PM 59.0 °F 46.0 °F 62% 29.59 in 10.0 mi West 10.4 mph - N/A   Overcast
5:52 PM 59.0 °F 44.1 °F 58% 29.60 in 10.0 mi WSW 13.8 mph 21.9 mph N/A   Mostly Cloudy
6:52 PM 57.0 °F 46.0 °F 67% 29.62 in 10.0 mi West 15.0 mph - N/A   Overcast
7:52 PM 54.0 °F 46.0 °F 75% 29.66 in 10.0 mi West 11.5 mph - 0.00 in   Overcast
8:52 PM 53.1 °F 43.0 °F 69% 29.67 in 10.0 mi WSW 9.2 mph - N/A   Overcast
9:52 PM 53.6 °F 42.8 °F 67% 29.69 in 10.0 mi SW 5.8 mph - N/A   Overcast
10:16 PM 53.1 °F 44.1 °F 71% 29.69 in 10.0 mi SSW 6.9 mph - N/A   Overcast
10:49 PM 53.6 °F 42.8 °F 67% 29.70 in 10.0 mi SSW 9.2 mph - N/A   Overcast
10:52 PM 53.1 °F 43.0 °F 69% 29.70 in 10.0 mi SW 9.2 mph - N/A   Overcast
11:02 PM 53.1 °F 43.0 °F 69% 29.70 in 10.0 mi SSW 9.2 mph - N/A   Overcast
11:52 PM 51.1 °F 44.1 °F 77% 29.71 in 10.0 mi SW 10.4 mph - 0.00 in Rain Light Rain